{"data":{"norad_id":64849,"epoch":"2026-09-20T17:43:50.262816Z","epoch_age_seconds":103484,"freshness":"FRESH","line1":"1 64849U 25152H   26263.73877619  .00016290  00000+0  50621-3 0  9997","line2":"2 64849  97.2835 114.3561 0001780 102.0101 258.1342 15.33420385 64862","mean_motion":15.33420385,"eccentricity":0.000178,"inclination_deg":97.2835,"raan_deg":114.3561,"arg_perigee_deg":102.0101,"mean_anomaly_deg":258.1342,"bstar":0.00050621,"rev_number":6486,"period_min":93.907712072055,"perigee_km":464.39822427229,"apogee_km":466.83460048709,"semimajor_km":6843.7534123797,"source":"CELESTRAK","updated_at":"2026-09-21T09:00:35.449782Z"}}